Regional Weather Roundup
Issued by NWS

Home | Current Version | Previous Version | Text Only | Print | Product List | Glossary Off
Versions: 1 2 3 4 5 6 7 8 9 10 11 12 13 14 15 16 17 18 19 20 21 22 23 24 25 26 27 28 29 30 31 32 33 34 35 36 37 38 39 40 41 42 43 44 45 46 47 48 49 50

000
ASUS45 KABQ 180401
RWRNM
WEATHER ROUNDUP FOR NEW MEXICO
NATIONAL WEATHER SERVICE ALBUQUERQUE NM
900 PM MST WED DEC 17 2014

NOTE: "FAIR" MEANS FEW OR NO CLOUDS BELOW 12,000 FEET AGL WITH NO
       SIGNIFICANT WEATHER OR OBSTRUCTIONS TO VISION.

      THIS PRODUCT IS RELEASED AS TWO VERSIONS.  ONE VERSION NEAR
      THE TOP OF THE HOUR CONTAINING PRELIMINARY DATA FROM ALBUQUERQUE
      AND OTHER STATIONS.  A FINAL VERSION WITH ADDITIONAL DATA IS
      ISSUED ABOUT 10 MINUTES AFTER THE HOUR.

NMZ501-503-504-510>518-180500-
NORTHWEST PLATEAU/NORTHCENTRAL MOUNTAINS

CITY           SKY/WX    TMP DP  RH WIND       PRES   REMARKS
FARMINGTON     CLOUDY    34  33  96 W5        30.05S WCI  30
SANTA FE       CLOUDY    33  32  96 SW10      30.04R FOG     WCI  25
TAOS           CLOUDY    30  27  86 CALM      30.03R

$$
NMZ402-403-502-505>509-180500-
WESTCENTRAL MOUNTAINS/SOUTHWEST MOUNTAINS

CITY           SKY/WX    TMP DP  RH WIND       PRES   REMARKS
GALLUP         PTCLDY    31  27  85 SW5       30.09R WCI  26
SILVER CITY    LGT RAIN  39  36  87 NW8       30.15R WCI  34

$$
NMZ407-409-411-412-180500-
SOUTHERN DESERTS

CITY           SKY/WX    TMP DP  RH WIND       PRES   REMARKS
DEMING         CLEAR     38  36  92 W7        30.12S WCI  33
HOLLOMAN AFB   MOCLDY    47  32  56 SW10      30.08S
ALAMOGORDO     CLOUDY    46  32  57 S12       30.10S
T OR C         PTCLDY    41  26  55 CALM      30.09R

$$
NMZ519>523-180500-
CENTRAL VALLEYS/CENTRAL HIGHLANDS

CITY           SKY/WX    TMP DP  RH WIND       PRES   REMARKS
ALBUQUERQUE    MOCLDY    37  35  92 SE6       30.08R WCI  32
DOUBLE EAGLE   CLEAR     32  30  93 S3        30.08R
CLINES CORNERS FOG       31  30  96 W17       30.01R VSB 3/4 WCI  19
BELEN          FAIR      33  31  92 SW9       30.09R WCI  25
SOCORRO        NOT AVBL

$$
NMZ524>526-539-540-180500-
SOUTHCENTRAL MOUNTAINS

CITY           SKY/WX    TMP DP  RH WIND       PRES   REMARKS
RUIDOSO        NOT AVBL

$$
NMZ527>531-180500-
NORTHEAST HIGHLANDS/NORTHEAST PLAINS

CITY           SKY/WX    TMP DP  RH WIND       PRES   REMARKS
LAS VEGAS      MOCLDY    32  25  75 SW13      29.99R WCI  22
RATON          MOCLDY    29  21  72 NE7       29.95R WCI  22
CLAYTON        CLOUDY    32  29  88 N5        29.96S WCI  27

$$
NMZ532>537-180500-
EASTCENTRAL PLAINS

CITY           SKY/WX    TMP DP  RH WIND       PRES   REMARKS
TUCUMCARI      CLEAR     46  32  58 W20       29.95R
CANNON AFB     CLEAR     44  32  60 W17       30.00R
CLOVIS AIRPORT PTCLDY    45  30  57 W17       30.00R

$$
NMZ028-029-538-180500-
SOUTHEAST PLAINS

CITY           SKY/WX    TMP DP  RH WIND       PRES   REMARKS
ROSWELL        CLEAR     39  28  64 SW8       30.04R WCI  33
ARTESIA        CLEAR     48  32  53 W14       30.05S
CARLSBAD       CLEAR     50  30  46 E3        30.05R
HOBBS          CLEAR     45  30  57 W7        30.06R


$$



USA.gov is the U.S. government's official web portal to all federal, state and local government web resources and services.